[[{"header":{"parameterUnit":"m.s-1","parameterCategory":1,"la1":30.2991,"la2":30.254,"lo1":-89.0895,"lo2":-89.0444,"dy":0.0017,"dx":0.0017,"nx":28,"ny":28,"refTime":"2024-06-16T03:00:00:Z","depth":0,"parameterNumber":2,"parameterNumberName":"U-component_of_WINDS"},"data":[0,0,0,0,0,0,0,0,0,0,0,0,0,0,0,0,0,0,0,0,0,0,0,0,0,0,0,0,0,0,0,0,0,0,0,0,0,0,0,0,0,0,0,0,0,0,0,0,0,0,0,0,0,0,0,0,0,0,-3.7673,-3.7673,0,-3.7709,-3.7709,-3.771,-3.7638,-3.7635,-3.7633,-3.7631,-3.7665,-3.7668,-3.7671,0,0,0,0,0,0,0,0,0,0,0,0,0,-3.7538,-3.7541,-3.7673,-3.7673,-3.7674,-3.7709,-3.7709,-3.771,-3.7638,-3.7635,-3.7632,-3.763,-3.7664,-3.7668,-3.7672,0,0,0,0,0,0,0,0,0,0,0,0,0,-3.7588,-3.7542,-3.7673,-3.7642,-3.764,-3.7709,-3.7709,-3.771,-3.7639,-3.7635,-3.7632,-3.7628,-3.7663,-3.7667,-3.7672,-3.7771,0,0,-3.7686,-3.7688,0,0,0,0,0,0,0,0,-3.7585,-3.7593,-3.7646,-3.7644,-3.7642,-3.7665,-3.7674,-3.773,-3.764,-3.7639,-3.7631,-3.7627,-3.7668,-3.7672,-3.7686,-3.7773,-3.7774,-3.7687,-3.769,-3.7692,-3.7693,0,0,0,0,0,0,0,-3.7582,-3.7591,-3.7687,-3.7647,-3.7644,-3.7625,-3.7629,-3.7685,-3.7673,-3.7639,-3.7634,-3.7639,-3.7666,-3.7682,-3.7687,-3.7775,-3.7687,-3.7691,-3.7694,-3.7695,-3.7942,-3.7945,0,0,0,0,0,0,-3.7582,-3.7588,-3.7686,-3.7688,-3.7604,-3.7631,-3.7634,-3.7661,-3.7672,-3.767,-3.7642,-3.7636,-3.7676,-3.7681,-3.7688,-3.7802,-3.7691,-3.7696,-3.7699,-3.7938,-3.7943,-3.7947,0,0,0,0,0,0,-3.758,-3.7592,-3.7684,-3.7637,-3.7647,-3.7637,-3.7668,-3.7664,-3.768,-3.7674,-3.7672,-3.7661,-3.7673,-3.7681,-3.775,-3.7802,-3.7698,-3.7702,-3.7934,-3.7939,-3.7945,-3.8033,0,0,0,0,0,0,-3.7576,-3.7591,-3.763,-3.7638,-3.765,-3.7748,-3.7671,-3.7667,-3.7688,-3.768,-3.7691,-3.769,-3.7671,-3.7744,-3.7755,-3.7807,-3.7706,-3.7929,-3.7936,-3.7943,-3.8025,-3.8041,-3.8054,0,0,0,0,0,-3.7572,-3.7653,-3.7632,-3.7644,-3.7698,-3.7751,-3.7757,-3.7735,-3.7693,-3.773,-3.7727,-3.7689,-3.7795,-3.7752,-3.7764,-3.7817,-3.7925,-3.7934,-3.7942,-3.8019,-3.8038,-3.8054,0,0,0,0,0,0,-3.765,-3.7654,-3.763,-3.7717,-3.7735,-3.7739,-3.7786,-3.7756,-3.7785,-3.7776,-3.7747,-3.775,-3.7825,-3.7828,-3.778,-3.7913,-3.7853,-3.7864,-3.7907,-3.7925,-3.7939,-3.7935,-3.771,0,0,0,0,0,-3.7678,-3.7722,-3.7722,-3.7799,-3.7809,-3.7796,-3.7818,-3.78,-3.7816,-3.7823,-3.7824,-3.784,-3.7877,-3.7902,-3.7935,-3.8026,-3.8026,-3.8069,-3.8084,-3.8095,-3.8105,-3.815,-3.8168,-3.7974,-3.7974,-3.7974,0,0,-3.7735,-3.7743,-3.7772,-3.7815,-3.7826,-3.787,-3.7803,-3.7853,-3.7885,-3.783,-3.7895,-3.7897,-3.7913,-3.7993,-3.8028,-3.7998,-3.8159,-3.8106,-3.8116,-3.8118,-3.8161,-3.8179,-3.8195,-3.798,-3.7979,-3.7978,0,0,-3.7861,-3.7873,-3.7936,-3.7949,-3.7967,-3.7958,-3.7973,-3.7982,-3.7981,-3.8046,-3.8005,-3.8043,-3.8107,-3.812,-3.8134,-3.8265,-3.823,-3.8277,-3.8351,-3.8396,-3.8411,-3.8425,-3.8468,-3.8485,-3.8287,-3.8287,-3.8287,0,-3.793,-3.7996,-3.7973,-3.8025,-3.8044,-3.7998,-3.806,-3.8074,-3.8101,-3.8115,-3.8081,-3.816,-3.8168,-3.8249,-3.8281,-3.8295,-3.831,-3.8274,-3.8411,-3.8424,-3.8436,-3.8478,-3.8494,-3.8292,-3.8292,-3.8291,-3.8291,0,-3.8077,-3.8124,-3.8173,-3.8201,-3.8226,-3.8284,-3.8268,-3.8296,-3.8275,-3.8269,-3.8335,-3.8343,-3.8376,-3.8395,-3.8375,-3.8473,-3.8453,-3.8416,-3.8355,-3.8461,-3.8498,-3.8514,-3.83,-3.8298,-3.8296,-3.8295,0,0,-3.8253,-3.8267,-3.8285,-3.8296,-3.8312,-3.8347,-3.8402,-3.8435,-3.8458,-3.848,-3.8523,-3.8579,-3.8544,-3.8561,-3.8543,-3.8583,-3.8682,-3.854,-3.854,-3.8564,-3.8786,-3.8812,-3.883,-3.8661,-3.8663,-3.8666,-3.8784,0,-3.8375,-3.847,-3.8451,-3.8543,-3.8584,-3.854,-3.8588,-3.8602,-3.8598,-3.8632,-3.8627,-3.8666,-3.8619,-3.8628,-3.8666,-3.8662,-3.8726,-3.8654,-3.8698,-3.87,-3.8692,-3.8851,-3.8878,-3.8989,-3.8799,-3.8801,-3.8803,0,-3.8531,-3.8557,-3.8654,-3.8662,-3.8678,-3.8722,-3.8749,-3.8783,-3.8797,-3.8791,-3.881,-3.8784,-3.8837,-3.8778,-3.8848,-3.88,-3.8817,-3.8818,-3.8822,-3.8822,-3.8756,-3.8853,-3.9024,-3.904,-3.8827,-3.8825,-3.8823,0,-3.8645,-3.8705,-3.877,-3.8782,-3.8793,-3.8824,-3.883,-3.8841,-3.8862,-3.8886,-3.8899,-3.8929,-3.8945,-3.8969,-3.895,-3.8909,-3.9023,-3.8963,-3.9018,-3.9018,-3.9041,-3.9039,-3.9215,-3.9058,-3.9058,-3.9058,-3.9057,0,-3.8782,-3.8842,-3.8821,-3.8861,-3.8926,-3.8903,-3.8968,-3.8969,-3.8979,-3.9017,-3.8982,-3.9018,-3.8993,-3.9027,-3.9013,-3.9072,-3.9081,-3.9076,-3.9071,-3.9077,-3.9077,-3.9086,-3.9076,-3.9062,-3.9061,-3.906,-3.9059,0,-3.892,-3.8909,-3.8976,-3.8981,-3.8984,-3.9032,-3.9035,-3.9071,-3.9065,-3.9113,-3.9123,-3.9113,-3.9151,-3.9136,-3.9176,-3.9166,-3.9241,-3.9228,-3.9236,-3.9232,-3.9286,-3.928,-3.947,-3.9492,-3.9325,-3.9326,-3.9328,0,-3.9006,-3.9052,-3.9062,-3.9085,-3.9093,-3.9131,-3.9152,-3.913,-3.9153,-3.9173,-3.9206,-3.9241,-3.9267,-3.9329,-3.9324,-3.9354,-3.9339,-3.9404,-3.9343,-3.9348,-3.9336,-3.9333,-3.9336,-3.9415,-3.9417,-3.9419,-3.942,0,-3.9161,-3.9153,-3.9184,-3.9214,-3.9239,-3.9262,-3.928,-3.9301,-3.928,-3.9308,-3.9346,-3.9366,-3.9407,-3.9441,-3.9467,-3.9472,-3.9442,-3.944,-3.9453,-3.9458,-3.946,-3.9457,-3.9266,-3.9434,-3.9433,-3.9432,-3.9431,-3.9431,-3.9273,-3.931,-3.9323,-3.9358,-3.937,-3.9389,-3.9422,-3.942,-3.9452,-3.9483,-3.9469,-3.9512,-3.9524,-3.9557,-3.9566,-3.9598,-3.9573,-3.9593,-3.9598,-3.9603,-3.9608,-3.9458,-3.9604,-3.9603,-3.9603,-3.9602,-3.9602,0,-3.9423,-3.9429,-3.9462,-3.9489,-3.9517,-3.9488,-3.9507,-3.9531,-3.957,-3.9585,-3.9611,-3.9654,-3.9687,-3.9685,-3.9714,-3.9741,-3.9728,-3.9749,-3.9745,-3.9746,-3.9631,-3.9615,-3.9759,-3.9759,-3.9759,-3.9759,-3.9759,-3.9759,-3.9504,-3.9564,-3.9557,-3.9622,-3.9627,-3.967,-3.9683,-3.9699,-3.971,-3.9759,-3.9786,-3.9785,-3.9792,-3.9822,-3.985,-3.9849,-3.986,-3.9886,-3.9879,-3.9771,-3.9755,-3.974,-3.9724,-3.9889,-3.989,-3.9991,-3.9992,-3.9993]},{"header":{"parameterUnit":"m.s-1","parameterCategory":1,"la1":30.2991,"la2":30.254,"lo1":-89.0895,"lo2":-89.0444,"dy":0.0017,"dx":0.0017,"nx":28,"ny":28,"refTime":"2024-06-16T03:00:00:Z","depth":0,"parameterNumber":3,"parameterNumberName":"V-component_of_WINDS"},"data":[0,0,0,0,0,0,0,0,0,0,0,0,0,0,0,0,0,0,0,0,0,0,0,0,0,0,0,0,0,0,0,0,0,0,0,0,0,0,0,0,0,0,0,0,0,0,0,0,0,0,0,0,0,0,0,0,0,0,2.2227,2.2228,0,2.232,2.2321,2.2322,2.2309,2.2308,2.2306,2.2305,2.2397,2.2401,2.2405,0,0,0,0,0,0,0,0,0,0,0,0,0,2.2038,2.2042,2.2227,2.2228,2.2229,2.2319,2.2321,2.2322,2.231,2.2308,2.2306,2.2304,2.2396,2.2401,2.2405,0,0,0,0,0,0,0,0,0,0,0,0,0,2.2124,2.2043,2.2227,2.2234,2.2236,2.2319,2.2321,2.2322,2.231,2.2308,2.2305,2.2303,2.2395,2.24,2.2406,2.2487,0,0,2.2424,2.2426,0,0,0,0,0,0,0,0,2.212,2.2131,2.2232,2.2234,2.2236,2.2301,2.2288,2.2378,2.2311,2.2282,2.2305,2.2302,2.2367,2.2375,2.2397,2.2492,2.2496,2.2424,2.2428,2.243,2.2432,0,0,0,0,0,0,0,2.2114,2.2127,2.2264,2.2233,2.2236,2.2232,2.2242,2.2305,2.2336,2.2284,2.2283,2.2295,2.2367,2.2392,2.2399,2.2497,2.2424,2.2429,2.2433,2.2435,2.2664,2.2666,0,0,0,0,0,0,2.2106,2.2122,2.2261,2.2266,2.2171,2.2238,2.2248,2.2282,2.2335,2.2341,2.2296,2.2294,2.2383,2.2392,2.2402,2.2501,2.243,2.2436,2.2439,2.2661,2.2665,2.2667,0,0,0,0,0,0,2.2102,2.2119,2.2257,2.2194,2.2212,2.2243,2.2281,2.2285,2.2309,2.2345,2.235,2.2315,2.2381,2.2394,2.2467,2.2504,2.2438,2.2444,2.2658,2.2662,2.2666,2.27,0,0,0,0,0,0,2.2097,2.2117,2.2149,2.2195,2.2215,2.232,2.2283,2.2289,2.2319,2.2317,2.2364,2.2369,2.2381,2.2458,2.2472,2.2511,2.2448,2.2655,2.266,2.2665,2.2696,2.2705,2.2712,0,0,0,0,0,2.209,2.2154,2.215,2.2167,2.2255,2.2322,2.2334,2.2346,2.2323,2.2354,2.2377,2.2368,2.2498,2.2466,2.2482,2.2523,2.2653,2.2659,2.2664,2.2692,2.2703,2.2712,0,0,0,0,0,0,2.211,2.216,2.2157,2.2238,2.2276,2.232,2.236,2.2357,2.2402,2.2397,2.241,2.2421,2.2494,2.2516,2.2478,2.2605,2.2572,2.2582,2.2588,2.2598,2.2607,2.2599,2.2453,0,0,0,0,0,2.2124,2.2175,2.2216,2.2283,2.2303,2.2329,2.2358,2.2365,2.2404,2.242,2.2448,2.2487,2.2536,2.2569,2.2616,2.2699,2.2709,2.2736,2.2744,2.275,2.2758,2.2804,2.2816,2.2686,2.2686,2.2686,0,0,2.2153,2.2187,2.2218,2.2288,2.2319,2.2371,2.2342,2.2398,2.2437,2.2428,2.2499,2.2521,2.2565,2.2643,2.2679,2.2663,2.2796,2.2758,2.2763,2.2767,2.2811,2.2823,2.2834,2.269,2.269,2.2689,0,0,2.2233,2.2264,2.2323,2.2355,2.2402,2.2418,2.2433,2.2478,2.2493,2.2564,2.2559,2.2605,2.269,2.2722,2.2749,2.2842,2.2835,2.2857,2.29,2.2944,2.2955,2.2964,2.2997,2.3008,2.2865,2.2865,2.2865,0,2.2262,2.2341,2.2354,2.2412,2.2442,2.2439,2.2499,2.2529,2.2588,2.261,2.2592,2.27,2.2729,2.2814,2.2837,2.286,2.2876,2.2851,2.2952,2.2961,2.297,2.3002,2.3014,2.2867,2.2867,2.2867,2.2867,0,2.2376,2.243,2.2473,2.2532,2.2568,2.2626,2.2648,2.2683,2.2686,2.2705,2.2778,2.2813,2.2868,2.2889,2.2892,2.2975,2.2964,2.2949,2.2917,2.2985,2.3014,2.3027,2.2871,2.287,2.2869,2.2869,0,0,2.2469,2.2535,2.2551,2.2578,2.263,2.2672,2.273,2.2785,2.2815,2.2856,2.2905,2.2978,2.2965,2.2996,2.3004,2.3043,2.3114,2.3023,2.3024,2.3038,2.3207,2.3218,2.3231,2.311,2.3113,2.3115,2.3204,0,2.2553,2.2657,2.2671,2.2763,2.2814,2.2811,2.2862,2.29,2.2919,2.2964,2.2986,2.3037,2.3016,2.3035,2.3074,2.3097,2.3148,2.3091,2.3155,2.3158,2.3144,2.3247,2.3258,2.334,2.3215,2.3217,2.3219,0,2.2665,2.2711,2.2808,2.2853,2.2875,2.2921,2.2972,2.3016,2.3058,2.307,2.3105,2.3108,2.3168,2.3134,2.3217,2.3178,2.3206,2.3221,2.3225,2.3231,2.3192,2.3255,2.3367,2.3379,2.3237,2.3236,2.3235,0,2.2722,2.2808,2.2878,2.2901,2.2956,2.2988,2.3013,2.3053,2.3085,2.313,2.3151,2.3203,2.323,2.327,2.3286,2.326,2.3369,2.3336,2.3379,2.3379,2.3401,2.34,2.3519,2.3421,2.342,2.342,2.342,0,2.2814,2.2874,2.2905,2.2947,2.3014,2.303,2.3095,2.3118,2.3154,2.3201,2.3202,2.3246,2.3266,2.3312,2.3326,2.3393,2.3405,2.3416,2.3418,2.3415,2.3414,2.3433,2.3427,2.3423,2.3423,2.3422,2.3421,0,2.289,2.2913,2.2988,2.3035,2.3048,2.3095,2.3135,2.3176,2.3195,2.3255,2.327,2.33,2.3355,2.3376,2.3443,2.3452,2.353,2.3528,2.3515,2.3516,2.3558,2.3554,2.3693,2.3712,2.3602,2.3603,2.3603,0,2.2946,2.2992,2.3044,2.3076,2.3102,2.3153,2.3186,2.3204,2.3238,2.3291,2.3326,2.3381,2.3426,2.3515,2.3543,2.3594,2.3593,2.3639,2.3601,2.3597,2.3594,2.359,2.3595,2.3645,2.3646,2.3647,2.3648,0,2.3045,2.3054,2.3102,2.3155,2.3195,2.3237,2.3278,2.3304,2.3327,2.3366,2.3423,2.3458,2.3528,2.3583,2.3636,2.366,2.3658,2.366,2.3673,2.3669,2.366,2.3665,2.3534,2.3656,2.3655,2.3655,2.3654,2.3654,2.3112,2.3153,2.3196,2.325,2.3283,2.3321,2.3362,2.3388,2.3436,2.3494,2.3502,2.3563,2.3605,2.3676,2.3703,2.3751,2.3739,2.3758,2.3762,2.3766,2.3769,2.3653,2.3761,2.3761,2.3761,2.3761,2.376,0,2.321,2.3238,2.3288,2.3345,2.3388,2.3383,2.3428,2.3464,2.3518,2.3558,2.3602,2.3668,2.3722,2.3755,2.3808,2.3841,2.3841,2.3854,2.3851,2.3857,2.3777,2.3761,2.3853,2.3853,2.3853,2.3853,2.3853,2.3853,2.3266,2.3335,2.335,2.3435,2.3462,2.3523,2.3549,2.3585,2.3616,2.369,2.3735,2.3756,2.3793,2.385,2.3899,2.3907,2.3927,2.3941,2.3948,2.3872,2.3863,2.3854,2.3838,2.3945,2.3945,2.4024,2.4025,2.4025]}]]